Regional Weather Roundup
Issued by NWS Goodland, KS

Home | Current Version | Previous Version | Text Only | Print | Product List | Glossary On
Versions: 1 2 3 4 5 6 7 8 9 10 11 12 13 14 15 16 17 18 19 20 21 22 23 24 25 26 27 28 29 30 31 32 33 34 35 36 37 38 39 40 41 42 43 44 45 46 47 48 49 50
000
ASUS43 KGLD 270259
RWRGLD

GOODLAND FORECAST AREA HOURLY WEATHER ROUNDUP
NATIONAL WEATHER SERVICE GOODLAND KS
900 PM MDT THU MAY 26 2016

...OFFICIAL OBSERVATIONS...

CITY           SKY/WX    TMP DP  RH WIND       PRES   REMARKS
GOODLAND KS    NOT AVBL
HILL CITY KS   TSTM      58  54  86 W20G41    29.79R FOG
IMPERIAL NEB   RAIN      54  51  90 E9G23     29.81R FOG
MCCOOK NEB     TSTM      55  51  86 W24G37    29.77R FOG
AKRON CO       RAIN      48  45  89 SW17      29.91R
BURLINGTON CO  CLOUDY    49  40  71 NW33G44   29.74F
LIMON CO       CLOUDY    40  38  93 N17       29.83F
$$

...UNOFFICIAL OBSERVATIONS...

CITY           SKY/WX    TMP DP  RH WIND       PRES   REMARKS
GOVE KS          N/A     57  32  39 MISG        N/A
KIT CARSON CO    N/A     48  41  77 MISG        N/A
YUMA CO          N/A     50  48  92 SW10G18     N/A
$$



USA.gov is the U.S. government's official web portal to all federal, state and local government web resources and services.